Weather History for San Diego, CA

Change the Weather History Date:

Wednesday, April 9, 2014

  Actual Average Record
Temperature  
Mean Temperature 72 °F 61 °F  
Max Temperature 82 °F 67 °F 90 °F (1968)
Min Temperature 61 °F 55 °F 43 °F (1893)
Degree Days  
Heating Degree Days 0 4  
Month to date heating degree days 25 41  
Since 1 July heating degree days 521 1077  
Cooling Degree Days 7 0  
Month to date cooling degree days 20 0  
Year to date cooling degree days 49 10  
Growing Degree Days 22 (Base 50)    
Moisture  
Dew Point 48 °F    
Average Humidity 51    
Maximum Humidity 72    
Minimum Humidity 30    
Precipitation  
Precipitation 0.00 in 0.04 in 0.82 in (1912)
Month to date precipitation 0.36 0.33  
Year to date precipitation 2.65 6.39  
Since 1 July precipitation 4.89 9.70  
Snow  
Snow 0.00 in - - ()
Month to date snowfall 0.0  
Year to date snowfall 0.0  
Since 1 July snowfall 0.0  
Snow Depth 0.00 in    
Sea Level Pressure  
Sea Level Pressure 30.00 in    
Wind  
Wind Speed 5 mph (NW)    
Max Wind Speed 14 mph    
Max Gust Speed 18 mph    
Visibility 10 miles    
Events      
T = Trace of Precipitation, MM = Missing Value Source: NWS Daily Summary

Daily Weather History Graph

Daily Weather History Graph

Search for Another Location

Airport:

Trip Planner

Search our weather history database for the weather conditions in past years. The results will help you decide how hot, cold, wet, or windy it might be!

Date:

Astronomy

Apr. 09, 2014 Rise Set
Actual Time 6:26 AM PDT 7:14 PM PDT
Civil Twilight 6:01 AM PDT 7:39 PM PDT
Nautical Twilight 5:31 AM PDT 8:09 PM PDT
Astronomical Twilight 5:01 AM PDT 8:39 PM PDT
Moon 2:22 PM PDT (4/9) 3:01 AM PDT (4/9)
Length of Visible Light 13h 38m
Length of Day
12h 48m
Waxing Gibbous, 72% of the Moon is Illuminated
Apr 9
Waxing Gibbous
Apr 15
Full
Apr 22
Last Quarter
Apr 28
New
May 6
First Quarter

Hourly Weather History & Observations

Time (PDT) Temp. Dew Point Humidity Pressure Visibility Wind Dir Wind Speed Gust Speed Precip Events Conditions
12:51 AM 66.0 °F 48.9 °F 54% 30.04 in 10.0 mi NW 3.5 mph - N/A   Scattered Clouds
1:51 AM 64.0 °F 53.1 °F 67% 30.04 in 10.0 mi Calm Calm - N/A   Mostly Cloudy
2:51 AM 62.1 °F 54.0 °F 75% 30.02 in 10.0 mi North 4.6 mph - N/A   Mostly Cloudy
3:51 AM 63.0 °F 51.1 °F 65% 30.01 in 10.0 mi Calm Calm - N/A   Mostly Cloudy
4:51 AM 62.1 °F 50.0 °F 65% 30.00 in 10.0 mi Calm Calm - N/A   Mostly Cloudy
5:51 AM 61.0 °F 43.0 °F 52% 30.01 in 10.0 mi Calm Calm - N/A   Mostly Cloudy
6:51 AM 61.0 °F 45.0 °F 56% 30.02 in 10.0 mi Calm Calm - N/A   Mostly Cloudy
7:51 AM 63.0 °F 45.0 °F 52% 30.04 in 10.0 mi NNW 4.6 mph - N/A   Overcast
8:51 AM 66.0 °F 46.0 °F 48% 30.04 in 10.0 mi NW 4.6 mph - N/A   Overcast
9:51 AM 73.0 °F 45.0 °F 37% 30.03 in 10.0 mi WNW 4.6 mph - N/A   Overcast
10:51 AM 73.0 °F 50.0 °F 44% 30.03 in 10.0 mi WNW 6.9 mph - N/A   Overcast
11:51 AM 75.9 °F 48.0 °F 37% 30.02 in 10.0 mi NW 6.9 mph - N/A   Overcast
12:51 PM 81.0 °F 46.9 °F 30% 29.99 in 10.0 mi WNW 6.9 mph - N/A   Overcast
1:51 PM 75.0 °F 48.0 °F 38% 29.97 in 10.0 mi NW 9.2 mph - N/A   Overcast
2:51 PM 73.0 °F 46.0 °F 38% 29.96 in 10.0 mi WNW 10.4 mph - N/A   Overcast
3:51 PM 73.9 °F 46.9 °F 38% 29.95 in 10.0 mi NNW 6.9 mph - N/A   Overcast
4:51 PM 73.0 °F 46.9 °F 39% 29.95 in 10.0 mi WNW 10.4 mph - N/A   Mostly Cloudy
5:51 PM 73.0 °F 52.0 °F 48% 29.95 in 10.0 mi WNW 6.9 mph - N/A   Mostly Cloudy
6:51 PM 73.0 °F 50.0 °F 44% 29.95 in 10.0 mi West 3.5 mph - N/A   Mostly Cloudy
7:51 PM 70.0 °F 50.0 °F 49% 29.97 in 10.0 mi NW 5.8 mph - N/A   Mostly Cloudy
8:51 PM 70.0 °F 45.0 °F 41% 29.98 in 10.0 mi NNW 4.6 mph - N/A   Mostly Cloudy
9:51 PM 69.1 °F 39.9 °F 35% 29.99 in 10.0 mi NW 5.8 mph - N/A   Mostly Cloudy
10:51 PM 64.9 °F 46.0 °F 50% 30.00 in 10.0 mi NW 5.8 mph - N/A   Scattered Clouds
11:51 PM 64.9 °F 45.0 °F 48% 30.00 in 10.0 mi North 3.5 mph - N/A   Scattered Clouds